Wind_Speed
24 24 23 22 21 20 19 18 18 18 19 20 21 22 22 23 23 24 25 26 28 32 36 37 37 37 36 35 33 31 29 28 27 25 23 22 22 21 21 21 21 20 20
24 24 23 22 22 20 19 19 18 18 19 19 20 20 21 22 22 21 23 24 25 29 35 38 38 37 37 36 35 34 33 31 30 29 28 26 25 24 24 24 23 23 22
24 23 22 22 22 22 21 21 20 20 20 20 20 21 21 22 23 22 22 23 24 25 29 33 35 36 37 38 38 37 36 34 33 32 31 30 28 27 27 27 26 25 25
22 21 20 20 21 22 23 23 23 23 23 22 22 22 22 22 23 23 23 23 25 26 27 29 32 34 36 37 37 37 37 36 34 33 33 33 31 30 29 29 28 26 26
21 21 20 20 21 22 23 23 24 24 24 24 24 23 23 23 23 24 24 23 25 26 27 28 29 31 33 35 36 36 36 36 35 34 33 33 32 31 31 30 28 27 27
21 21 22 22 23 23 23 23 24 24 24 24 24 24 24 24 24 24 24 23 24 25 26 27 28 28 29 31 33 35 35 35 35 34 34 33 33 33 32 30 28 28 28
22 23 24 24 24 24 24 24 24 24 24 24 25 25 25 24 24 24 23 24 24 24 25 26 28 28 28 28 31 33 34 35 35 34 33 33 33 33 32 30 29 28 28
23 24 25 25 24 24 24 24 23 23 24 24 25 25 25 25 25 24 24 24 25 25 24 25 26 27 27 28 29 30 31 32 33 33 33 33 33 32 31 29 29 28 29
23 24 24 24 23 23 23 24 24 24 24 25 25 25 26 25 25 25 25 25 25 24 24 24 24 24 25 27 28 29 31 32 32 32 33 33 33 32 31 30 29 30 30
22 22 22 23 23 23 23 24 24 25 25 25 26 26 26 27 26 26 26 26 26 26 25 24 24 24 24 24 26 27 28 30 31 32 33 33 33 33 32 32 31 31 31
20 20 21 21 22 22 22 23 24 25 26 26 27 28 28 28 28 28 27 27 27 26 25 24 24 24 24 24 25 26 27 28 29 31 33 34 34 34 34 34 34 34 33
18 18 19 19 20 21 21 22 23 24 25 27 28 29 29 30 29 28 28 27 27 27 26 25 24 24 24 24 25 25 26 28 29 30 32 34 35 35 36 37 36 36 36
16 16 17 18 18 19 20 21 21 22 24 25 27 29 30 30 29 28 27 27 27 27 26 25 24 24 24 24 24 25 25 27 29 30 31 33 34 36 37 38 38 38 37
15 15 15 16 16 17 17 18 19 20 21 22 24 26 28 28 27 27 26 26 26 26 25 25 24 24 24 23 23 24 25 26 28 30 31 31 33 35 37 38 39 40 39
13 13 13 13 14 15 15 15 16 16 16 17 18 20 22 23 24 24 24 23 24 24 24 24 24 23 23 24 24 24 25 26 26 28 29 30 30 32 35 36 38 40 40
11 11 12 12 13 13 14 13 12 10 9 8 10 12 15 16 18 20 21 21 21 21 21 22 22 22 22 22 23 24 24 25 25 26 27 27 28 30 32 34 36 37 38
10 11 11 11 12 13 13 12 11 9 6 3 2 4 7 10 12 14 16 17 17 17 18 18 19 20 20 21 21 21 22 22 23 24 24 26 27 28 30 32 34 35 36
10 10 11 10 11 12 12 11 10 9 7 4 3 3 5 6 8 10 11 12 13 14 15 16 16 18 19 20 21 22 22 23 24 24 25 26 26 27 29 30 31 32 34
11 11 10 10 10 11 11 11 10 9 7 6 4 4 4 4 5 6 8 9 10 11 13 14 15 16 17 19 20 21 22 23 25 25 26 27 28 29 30 31 32 33 33
11 11 10 10 10 10 10 10 9 8 7 6 5 4 3 3 4 5 6 7 8 9 10 12 13 14 15 16 18 19 20 21 23 24 26 27 28 29 30 32 33 33 34
11 11 10 10 10 9 9 9 8 8 7 6 5 5 3 3 2 3 4 5 6 7 8 9 11 12 14 15 16 17 19 20 22 23 25 27 28 29 30 31 32 33 34
11 11 11 10 10 10 10 9 9 8 8 7 6 5 5 4 3 2 1 2 3 4 6 7 9 10 11 13 14 16 18 19 20 22 23 24 24 26 27 29 30 31 33
11 11 11 12 12 12 12 11 11 10 10 9 8 7 6 6 5 4 3 2 1 2 3 5 6 8 9 11 13 14 15 16 17 18 20 20 21 22 23 24 25 27 29
11 12 13 13 13 13 13 13 13 12 12 11 11 10 9 8 8 7 5 4 4 3 4 4 6 7 9 10 11 13 14 15 17 18 18 19 19 19 19 20 21 23 25
11 12 13 14 14 15 15 15 15 15 15 15 14 14 13 12 11 10 9 8 7 7 6 7 7 8 9 9 10 11 12 14 15 15 16 16 17 17 18 19 20 22 24
10 11 12 13 14 15 15 16 16 17 17 17 17 17 16 15 14 13 13 12 11 11 10 10 10 10 10 11 12 12 13 14 14 15 16 16 17 17 18 19 20 21 22
Wind_Direction
293 291 287 283 279 274 270 266 262 258 255 254 253 255 255 257 258 255 253 251 246 240 234 230 230 232 234 236 238 240 242 243 244 243 244 245 248 250 250 249 249 249 249
293 288 283 280 276 273 270 268 265 262 259 256 256 256 254 255 256 257 254 250 247 241 234 230 231 232 233 235 237 241 243 244 246 247 247 248 249 251 253 252 251 251 252
292 286 281 277 274 271 270 269 267 265 263 261 260 258 256 255 254 255 255 251 246 241 236 234 234 235 235 236 238 241 243 245 247 249 250 251 250 251 254 254 254 254 254
287 283 280 277 274 272 270 270 268 267 265 264 262 259 257 255 254 254 252 251 246 243 241 239 238 236 235 235 237 240 242 245 246 247 249 250 251 251 252 253 255 256 254
281 279 279 278 277 275 273 271 269 267 264 262 261 258 256 255 254 253 250 249 248 245 242 241 240 238 236 236 237 238 241 243 244 247 248 249 250 250 250 251 254 255 254
277 279 281 283 282 280 277 273 270 266 263 260 258 256 255 254 254 252 250 249 248 246 242 239 239 239 239 238 237 237 239 241 243 245 246 247 248 248 248 250 252 254 254
278 281 283 285 284 282 279 276 271 266 262 259 257 256 254 253 252 251 249 247 246 247 244 242 241 241 241 240 238 239 239 240 242 243 244 245 246 247 248 249 252 254 253
282 283 284 284 283 281 279 276 272 267 263 259 256 254 253 251 250 249 248 247 246 246 246 244 242 241 243 242 240 240 240 240 240 241 242 243 245 245 246 248 251 250 249
285 285 285 284 283 281 278 275 273 269 264 260 256 253 251 250 249 248 247 246 246 246 245 244 243 243 243 242 242 242 242 241 240 241 242 243 243 243 244 245 247 247 248
288 288 287 286 285 282 279 276 273 270 265 261 257 254 251 249 248 248 246 246 246 246 244 243 243 244 246 244 243 243 244 244 244 243 242 241 241 241 242 244 245 246 248
292 293 292 291 289 286 282 278 274 270 266 262 258 255 252 250 249 248 247 246 246 245 245 245 246 245 245 244 245 245 245 247 248 247 245 244 243 244 244 244 244 246 247
298 298 297 296 294 292 288 283 278 273 268 264 259 256 253 251 250 247 245 245 243 244 245 245 245 245 246 245 246 247 247 249 252 251 250 249 248 246 246 244 244 245 246
305 304 303 302 301 298 294 290 284 277 271 265 260 255 252 250 247 244 242 242 241 243 244 244 244 245 247 248 249 249 251 252 254 255 255 255 253 250 248 245 244 245 246
312 310 309 310 309 306 303 298 291 284 276 268 261 254 249 247 243 240 239 238 238 239 240 241 243 244 245 247 250 252 255 258 260 259 259 258 256 252 249 247 246 246 247
319 319 321 324 326 324 319 314 306 297 284 271 259 250 244 240 237 234 232 233 233 234 237 239 241 244 245 248 252 255 258 260 263 262 259 258 255 252 250 249 248 247 248
329 331 334 337 340 341 340 337 332 322 304 279 255 244 237 232 228 225 224 228 230 232 234 237 239 243 247 250 253 256 260 262 262 262 262 259 257 254 251 249 248 249 249
339 340 343 346 350 353 354 356 357 358 355 337 250 218 211 211 210 211 214 218 222 225 229 234 239 244 249 252 255 258 260 263 264 262 261 261 259 257 254 252 250 250 250
346 347 349 351 353 357 1 5 10 17 27 43 77 135 161 178 189 197 204 211 216 223 229 236 242 247 251 255 258 261 262 265 268 266 265 266 265 263 261 258 257 255 253
353 353 352 352 355 359 4 10 16 24 33 47 69 103 132 154 170 188 201 210 218 226 233 240 246 251 256 260 262 263 265 267 268 268 269 269 268 266 265 263 261 259 258
356 356 356 357 360 4 9 14 20 27 36 48 64 84 114 143 165 182 198 211 222 231 237 244 250 257 262 265 266 268 270 272 272 272 272 271 270 268 266 264 262 260 259
2 1 2 3 6 10 15 20 26 34 43 53 64 74 88 114 146 174 196 213 228 239 247 254 261 267 270 273 275 276 278 279 279 278 277 276 274 272 269 265 263 262 260
13 15 18 22 25 29 33 36 41 46 53 60 66 72 77 82 88 107 157 215 241 255 265 271 275 278 280 282 284 285 286 286 285 284 284 282 279 276 273 269 265 263 262
25 30 35 40 44 47 48 51 55 58 61 65 68 72 75 77 78 78 74 63 7 311 301 297 296 296 295 295 295 295 295 295 295 294 292 290 287 284 279 274 270 266 264
40 45 50 53 56 57 58 60 62 65 66 68 70 73 75 76 75 73 69 62 48 26 1 342 331 323 319 317 314 311 308 307 307 305 301 297 293 290 285 280 275 271 269
52 57 60 61 63 64 65 67 69 71 72 73 74 75 77 78 76 73 68 63 56 46 35 24 14 4 354 347 340 334 328 323 320 318 314 308 302 297 291 286 282 277 273
64 67 67 67 67 68 70 72 73 74 75 75 75 75 75 74 73 69 66 64 59 54 48 39 30 21 12 5 358 352 346 340 335 331 326 320 313 306 299 293 287 283 280
Height
5793 5791 5790 5788 5788 5787 5786 5786 5786 5786 5786 5786 5787 5787 5787 5788 5788 5788 5789 5790 5792 5795 5799 5803 5807 5811 5815 5818 5821 5825 5828 5830 5833 5835 5836 5838 5839 5840 5840 5841 5843 5844 5845
5787 5785 5784 5783 5782 5782 5782 5781 5781 5781 5781 5781 5781 5782 5782 5782 5783 5783 5783 5784 5786 5788 5791 5795 5800 5803 5807 5811 5815 5818 5821 5824 5827 5828 5830 5832 5834 5835 5835 5836 5837 5839 5840
5781 5779 5778 5777 5777 5776 5776 5776 5776 5776 5776 5776 5776 5776 5776 5777 5777 5777 5778 5779 5780 5782 5784 5788 5791 5795 5799 5803 5807 5810 5813 5816 5820 5822 5824 5826 5827 5829 5829 5830 5831 5832 5834
5775 5773 5772 5772 5771 5771 5770 5770 5770 5770 5770 5770 5770 5770 5770 5770 5771 5771 5772 5773 5774 5776 5778 5781 5784 5787 5791 5795 5799 5802 5806 5809 5812 5815 5817 5819 5820 5822 5822 5823 5824 5826 5827
5769 5768 5767 5766 5766 5765 5764 5764 5763 5763 5763 5763 5763 5764 5764 5764 5765 5765 5766 5767 5769 5770 5772 5774 5777 5779 5783 5786 5790 5794 5798 5801 5804 5807 5809 5811 5813 5814 5815 5816 5818 5819 5820
5764 5763 5762 5761 5759 5758 5757 5757 5756 5756 5756 5756 5756 5757 5758 5758 5759 5759 5760 5761 5763 5764 5766 5768 5770 5773 5775 5779 5782 5786 5790 5793 5796 5799 5801 5803 5805 5806 5808 5809 5811 5812 5814
5758 5757 5755 5754 5752 5751 5750 5749 5749 5748 5749 5749 5749 5750 5751 5751 5752 5753 5754 5755 5757 5758 5759 5762 5764 5766 5769 5772 5775 5778 5781 5785 5788 5791 5793 5795 5797 5799 5801 5803 5805 5806 5807
5752 5750 5748 5747 5745 5744 5743 5742 5741 5741 5741 5741 5742 5742 5743 5744 5745 5747 5748 5749 5750 5752 5753 5755 5758 5760 5762 5765 5768 5771 5774 5777 5780 5783 5786 5787 5789 5792 5794 5796 5797 5799 5800
5745 5743 5741 5740 5738 5737 5736 5734 5734 5734 5733 5734 5734 5735 5736 5737 5738 5739 5741 5742 5744 5746 5748 5749 5752 5754 5756 5759 5761 5764 5766 5769 5772 5774 5777 5779 5781 5784 5786 5788 5790 5791 5792
5738 5736 5735 5733 5731 5730 5728 5727 5726 5726 5725 5726 5726 5727 5728 5729 5731 5732 5734 5735 5737 5739 5741 5744 5746 5748 5750 5752 5755 5757 5759 5761 5763 5766 5769 5771 5773 5776 5778 5780 5782 5783 5784
5732 5730 5728 5726 5724 5722 5720 5719 5718 5717 5717 5717 5718 5718 5719 5721 5722 5724 5726 5728 5730 5732 5735 5737 5739 5742 5744 5746 5748 5750 5752 5754 5756 5758 5760 5762 5765 5767 5770 5771 5773 5775 5777
5727 5724 5722 5720 5717 5715 5713 5711 5710 5709 5708 5708 5709 5709 5711 5712 5714 5716 5718 5721 5723 5726 5728 5731 5733 5735 5738 5740 5742 5744 5746 5747 5748 5750 5752 5754 5756 5758 5760 5762 5764 5766 5768
5722 5719 5717 5714 5711 5709 5706 5704 5702 5700 5700 5699 5699 5700 5701 5703 5705 5708 5711 5713 5716 5719 5721 5724 5727 5729 5732 5734 5736 5737 5739 5740 5741 5742 5744 5745 5746 5748 5750 5752 5754 5756 5758
5717 5715 5712 5710 5706 5703 5700 5697 5694 5692 5691 5690 5689 5690 5691 5694 5696 5700 5703 5706 5709 5712 5715 5718 5721 5723 5726 5728 5729 5731 5732 5733 5734 5735 5736 5736 5737 5738 5740 5742 5744 5746 5748
5714 5711 5708 5705 5702 5698 5695 5691 5688 5685 5682 5681 5681 5681 5683 5686 5689 5693 5696 5700 5703 5706 5709 5712 5715 5718 5720 5722 5723 5724 5725 5726 5726 5726 5727 5728 5728 5729 5730 5732 5734 5735 5738
5711 5708 5706 5702 5699 5695 5691 5688 5684 5680 5678 5676 5676 5677 5678 5681 5683 5687 5691 5695 5698 5701 5704 5707 5710 5712 5714 5716 5717 5718 5718 5719 5719 5719 5719 5720 5720 5720 5721 5722 5723 5725 5727
5709 5706 5703 5700 5697 5694 5690 5686 5683 5680 5677 5675 5675 5675 5676 5678 5681 5684 5688 5691 5694 5697 5700 5703 5705 5707 5709 5710 5711 5712 5712 5712 5712 5712 5712 5712 5712 5712 5712 5713 5714 5715 5716
5707 5704 5702 5699 5696 5693 5690 5686 5683 5680 5678 5677 5676 5677 5677 5679 5681 5683 5686 5689 5692 5695 5697 5699 5701 5703 5704 5705 5705 5706 5706 5706 5706 5705 5705 5705 5705 5704 5704 5704 5705 5705 5706
5706 5703 5700 5698 5695 5693 5690 5687 5684 5682 5680 5679 5678 5679 5679 5680 5682 5684 5686 5688 5691 5693 5695 5697 5698 5699 5699 5700 5700 5700 5699 5699 5699 5698 5698 5697 5696 5696 5696 5695 5695 5696 5696
5705 5702 5700 5697 5695 5693 5690 5688 5686 5684 5682 5681 5681 5681 5681 5682 5683 5685 5686 5688 5690 5691 5692 5694 5694 5695 5695 5695 5694 5694 5693 5692 5692 5691 5690 5689 5688 5687 5686 5686 5686 5686 5686
5705 5702 5700 5697 5695 5692 5690 5688 5687 5685 5684 5683 5683 5683 5683 5683 5684 5685 5686 5687 5688 5689 5690 5691 5691 5691 5691 5690 5689 5688 5687 5686 5685 5683 5682 5680 5678 5677 5676 5675 5675 5675 5675
5705 5702 5700 5697 5695 5693 5691 5689 5688 5686 5685 5685 5684 5684 5684 5684 5685 5685 5686 5686 5687 5687 5688 5688 5688 5687 5686 5685 5684 5683 5682 5680 5678 5676 5674 5672 5670 5668 5666 5665 5664 5664 5664
5706 5704 5701 5699 5697 5695 5693 5691 5690 5688 5687 5687 5686 5686 5685 5685 5686 5686 5686 5686 5686 5686 5686 5685 5685 5684 5683 5682 5680 5679 5677 5675 5672 5670 5667 5664 5662 5660 5658 5656 5655 5655 5655
5709 5706 5704 5702 5700 5698 5696 5694 5693 5691 5690 5689 5688 5688 5687 5687 5687 5687 5687 5686 5686 5686 5685 5684 5683 5682 5681 5679 5677 5675 5673 5670 5667 5664 5661 5658 5656 5653 5651 5649 5648 5647 5646
5711 5709 5707 5705 5704 5702 5700 5698 5697 5695 5694 5693 5692 5691 5690 5690 5690 5689 5689 5688 5687 5687 5686 5684 5683 5681 5679 5677 5675 5672 5670 5667 5664 5660 5657 5654 5651 5648 5645 5643 5641 5640 5638
5714 5713 5711 5709 5708 5706 5704 5702 5701 5700 5699 5697 5696 5695 5694 5694 5693 5692 5691 5690 5689 5688 5687 5685 5683 5681 5679 5676 5674 5671 5668 5664 5661 5657 5654 5650 5646 5643 5640 5637 5635 5633 5631